When you browse on this site, cookies collect data to enhance your experience and personalize the content and advertising you see.
Visit our Privacy Policy to learn more. By continuing to use the site, you agree to this use of cookies and data.
  • în România
  • Lista ţărilor
  • Pe 7 zile
  • Temperatura apei
  • Hartă satelitară
  • Meteo pe hartă
  • Widget-uri
  • user-avatar
    Intrare

    Meteo pe oră la Philadelphia

    Astăzi, 21 Mai, Marţi

    Timp Temperatura Precipitaţii Vânt Presiune Umiditate
    00:00 +20°C° 0 mm 5 m/s 758 mmHg 54%
    01:00 +19°C° 0 mm 5 m/s 758 mmHg 54%
    02:00 +17°C° 0 mm 5 m/s 758 mmHg 53%
    03:00 +15°C° 0 mm 5 m/s 758 mmHg 53%
    04:00 +14°C° 0 mm 4 m/s 759 mmHg 52%
    05:00 +14°C° 0 mm 5 m/s 759 mmHg 53%
    06:00 +14°C° 0 mm 5 m/s 760 mmHg 54%
    07:00 +14°C° 0 mm 5 m/s 760 mmHg 55%
    08:00 +15°C° 0 mm 5 m/s 760 mmHg 51%
    09:00 +16°C° 0 mm 5 m/s 760 mmHg 47%
    10:00 +19°C° 0 mm 5 m/s 760 mmHg 42%
    11:00 +20°C° 0 mm 5 m/s 760 mmHg 39%
    12:00 +21°C° 0 mm 5 m/s 760 mmHg 36%
    13:00 +22°C° 0 mm 5 m/s 760 mmHg 33%
    14:00 +23°C° 0 mm 5 m/s 760 mmHg 33%
    15:00 +23°C° 0 mm 5 m/s 760 mmHg 32%
    16:00 +25°C° 0 mm 5 m/s 760 mmHg 32%
    17:00 +23°C° 0 mm 5 m/s 760 mmHg 33%
    18:00 +22°C° 0 mm 5 m/s 761 mmHg 34%
    19:00 +20°C° 0 mm 5 m/s 761 mmHg 34%
    20:00 +20°C° 0 mm 5 m/s 762 mmHg 37%
    21:00 +19°C° 0 mm 4 m/s 763 mmHg 40%
    22:00 +18°C° 0 mm 4 m/s 764 mmHg 43%
    23:00 +17°C° 0 mm 4 m/s 764 mmHg 44%

    Mâine, 22 Mai, Miercuri

    Timp Temperatura Precipitaţii Vânt Presiune Umiditate
    00:00 +17°C° 0 mm 3 m/s 764 mmHg 46%
    01:00 +16°C° 0 mm 3 m/s 764 mmHg 48%
    02:00 +16°C° 0 mm 3 m/s 765 mmHg 50%
    03:00 +14°C° 0 mm 3 m/s 765 mmHg 53%
    04:00 +15°C° 0 mm 2 m/s 765 mmHg 56%
    05:00 +16°C° 0 mm 2 m/s 765 mmHg 54%
    06:00 +16°C° 0 mm 2 m/s 766 mmHg 52%
    07:00 +17°C° 0 mm 2 m/s 766 mmHg 51%
    08:00 +19°C° 0 mm 3 m/s 767 mmHg 44%
    09:00 +21°C° 0 mm 3 m/s 767 mmHg 36%
    10:00 +22°C° 0 mm 3 m/s 767 mmHg 29%
    11:00 +24°C° 0 mm 3 m/s 767 mmHg 28%
    12:00 +25°C° 0 mm 2 m/s 767 mmHg 26%
    13:00 +26°C° 0 mm 2 m/s 766 mmHg 25%
    14:00 +26°C° 0 mm 2 m/s 766 mmHg 26%
    15:00 +26°C° 0 mm 2 m/s 766 mmHg 27%
    16:00 +26°C° 0 mm 2 m/s 765 mmHg 28%
    17:00 +25°C° 0 mm 2 m/s 766 mmHg 31%
    18:00 +24°C° 0 mm 1 m/s 766 mmHg 34%
    19:00 +23°C° 0 mm 1 m/s 766 mmHg 38%
    20:00 +22°C° 0 mm 1 m/s 766 mmHg 41%
    21:00 +22°C° 0 mm 1 m/s 766 mmHg 44%
    22:00 +21°C° 0 mm 1 m/s 766 mmHg 47%
    23:00 +20°C° 0 mm 1 m/s 766 mmHg 49%

    Poimâine, 23 Mai, Joi

    Timp Temperatura Precipitaţii Vânt Presiune Umiditate
    00:00 +19°C° 0 mm 2 m/s 766 mmHg 50%
    01:00 +19°C° 0 mm 2 m/s 766 mmHg 51%
    02:00 +19°C° 0.1 mm 2 m/s 766 mmHg 53%
    03:00 +18°C° 0.1 mm 2 m/s 766 mmHg 55%
    04:00 +18°C° 0.1 mm 2 m/s 766 mmHg 57%
    05:00 +18°C° 0.1 mm 2 m/s 766 mmHg 58%
    06:00 +18°C° 0.1 mm 3 m/s 766 mmHg 59%
    07:00 +18°C° 0.1 mm 3 m/s 766 mmHg 60%
    08:00 +19°C° 0 mm 3 m/s 766 mmHg 59%
    09:00 +21°C° 0 mm 3 m/s 765 mmHg 58%
    10:00 +22°C° 0 mm 4 m/s 765 mmHg 57%
    11:00 +25°C° 0 mm 4 m/s 764 mmHg 56%
    12:00 +26°C° 0 mm 3 m/s 764 mmHg 55%
    13:00 +28°C° 0 mm 3 m/s 763 mmHg 53%
    14:00 +28°C° 0 mm 3 m/s 762 mmHg 56%
    15:00 +28°C° 0 mm 3 m/s 762 mmHg 58%
    16:00 +28°C° 0 mm 3 m/s 761 mmHg 60%
    17:00 +28°C° 2.2 mm 4 m/s 760 mmHg 64%
    18:00 +27°C° 2.2 mm 4 m/s 760 mmHg 69%
    19:00 +26°C° 2.2 mm 4 m/s 760 mmHg 74%
    20:00 +25°C° 1.8 mm 4 m/s 759 mmHg 75%
    21:00 +25°C° 1.8 mm 4 m/s 759 mmHg 75%
    22:00 +25°C° 1.8 mm 4 m/s 759 mmHg 76%
    23:00 +23°C° 0.1 mm 4 m/s 758 mmHg 78%

    24 Mai, Vineri

    Timp Temperatura Precipitaţii Vânt Presiune Umiditate
    00:00 +23°C° 0.1 mm 4 m/s 758 mmHg 81%
    01:00 +22°C° 0.1 mm 4 m/s 757 mmHg 83%
    02:00 +22°C° 0 mm 4 m/s 757 mmHg 79%
    03:00 +21°C° 0 mm 4 m/s 757 mmHg 75%
    04:00 +21°C° 0 mm 5 m/s 757 mmHg 71%
    05:00 +20°C° 0 mm 5 m/s 758 mmHg 69%
    06:00 +20°C° 0 mm 5 m/s 759 mmHg 67%
    07:00 +20°C° 0 mm 5 m/s 759 mmHg 64%
    08:00 +21°C° 0 mm 6 m/s 759 mmHg 61%
    09:00 +22°C° 0 mm 6 m/s 760 mmHg 57%
    10:00 +24°C° 0 mm 6 m/s 760 mmHg 53%
    11:00 +26°C° 0 mm 6 m/s 760 mmHg 50%
    12:00 +27°C° 0 mm 5 m/s 760 mmHg 47%
    13:00 +28°C° 0 mm 5 m/s 760 mmHg 44%
    14:00 +28°C° 0 mm 5 m/s 760 mmHg 43%
    15:00 +28°C° 0 mm 5 m/s 761 mmHg 43%
    16:00 +28°C° 0 mm 4 m/s 761 mmHg 42%
    17:00 +27°C° 0 mm 4 m/s 761 mmHg 45%
    18:00 +26°C° 0 mm 3 m/s 762 mmHg 48%
    19:00 +25°C° 0 mm 3 m/s 763 mmHg 51%
    20:00 +22°C° 0 mm 3 m/s 763 mmHg 54%
    21:00 +20°C° 0 mm 3 m/s 764 mmHg 56%
    22:00 +18°C° 0 mm 4 m/s 764 mmHg 59%
    23:00 +17°C° 0 mm 3 m/s 764 mmHg 62%

    25 Mai, Sâmbătă

    Timp Temperatura Precipitaţii Vânt Presiune Umiditate
    00:00 +16°C° 0 mm 3 m/s 764 mmHg 65%
    01:00 +14°C° 0 mm 3 m/s 765 mmHg 69%
    02:00 +14°C° 0 mm 3 m/s 765 mmHg 69%
    03:00 +14°C° 0 mm 2 m/s 765 mmHg 70%
    04:00 +14°C° 0 mm 2 m/s 765 mmHg 70%
    05:00 +15°C° 0 mm 2 m/s 765 mmHg 68%
    06:00 +15°C° 0 mm 2 m/s 765 mmHg 66%
    07:00 +16°C° 0 mm 2 m/s 766 mmHg 64%
    08:00 +17°C° 0 mm 2 m/s 765 mmHg 59%
    09:00 +19°C° 0 mm 2 m/s 765 mmHg 53%
    10:00 +21°C° 0 mm 2 m/s 765 mmHg 47%
    11:00 +22°C° 0 mm 3 m/s 764 mmHg 46%
    12:00 +25°C° 0 mm 3 m/s 764 mmHg 46%
    13:00 +26°C° 0 mm 4 m/s 763 mmHg 45%
    14:00 +26°C° 0 mm 4 m/s 763 mmHg 47%
    15:00 +26°C° 0 mm 4 m/s 762 mmHg 48%
    16:00 +26°C° 0 mm 4 m/s 762 mmHg 50%
    17:00 +23°C° 0 mm 4 m/s 761 mmHg 54%
    18:00 +22°C° 0 mm 4 m/s 761 mmHg 59%
    19:00 +21°C° 0 mm 4 m/s 761 mmHg 63%
    20:00 +20°C° 0.2 mm 4 m/s 761 mmHg 67%
    21:00 +19°C° 0.2 mm 4 m/s 761 mmHg 72%
    22:00 +18°C° 0.2 mm 4 m/s 761 mmHg 76%
    23:00 +18°C° 0.1 mm 4 m/s 761 mmHg 77%

    26 Mai, Duminică

    Timp Temperatura Precipitaţii Vânt Presiune Umiditate
    00:00 +18°C° 0.1 mm 4 m/s 761 mmHg 79%
    01:00 +18°C° 0.1 mm 4 m/s 760 mmHg 80%
    02:00 +18°C° 0 mm 3 m/s 760 mmHg 83%
    03:00 +18°C° 0 mm 3 m/s 760 mmHg 85%
    04:00 +18°C° 0 mm 3 m/s 760 mmHg 87%
    05:00 +19°C° 0 mm 3 m/s 760 mmHg 85%
    06:00 +20°C° 0 mm 2 m/s 760 mmHg 84%
    07:00 +21°C° 0 mm 2 m/s 760 mmHg 82%
    08:00 +21°C° 0.1 mm 2 m/s 760 mmHg 81%
    09:00 +23°C° 0.1 mm 2 m/s 759 mmHg 79%
    10:00 +24°C° 0.1 mm 2 m/s 759 mmHg 78%
    11:00 +26°C° 0.8 mm 2 m/s 759 mmHg 72%
    12:00 +28°C° 0.8 mm 3 m/s 759 mmHg 67%
    13:00 +29°C° 0.8 mm 4 m/s 759 mmHg 61%
    14:00 +29°C° 1.1 mm 3 m/s 759 mmHg 60%
    15:00 +30°C° 1.1 mm 3 m/s 759 mmHg 59%
    16:00 +30°C° 1.1 mm 2 m/s 759 mmHg 57%
    17:00 +29°C° 0 mm 2 m/s 759 mmHg 59%
    18:00 +28°C° 0 mm 2 m/s 759 mmHg 60%
    19:00 +27°C° 0 mm 2 m/s 759 mmHg 62%
    20:00 +26°C° 0 mm 1 m/s 759 mmHg 65%
    21:00 +25°C° 0 mm 1 m/s 759 mmHg 67%
    22:00 +24°C° 0 mm 1 m/s 759 mmHg 70%
    23:00 +24°C° 0 mm 1 m/s 759 mmHg 72%
    Arată mai mult